CCAYT SGAS-SLLP

Flight info

Callsign CCAYT
Flight time 2h 16m
Altitude 40000
Route N0432F400 UKELA UM657 ILPUR/N0418F430 UM657 VAPAS VAPA1A
Aircraft C25C/M-SDE2E3FGHRWXY/LB1

Departure

Time 2026-04-27 09:20
Airport Silvio Pettirossi International Airport (SGAS)

Arrival

Time 2026-04-27 11:37
Airport El Alto International Airport (SLLP)
Time Latitude Longitude Altitude Speed Heading
2026-04-27 09:12 -25.24132 -57.51519 273 ft 0 kts 189°
2026-04-27 09:16 -25.24139 -57.51520 273 ft 5 kts 189°
2026-04-27 09:16 -25.24159 -57.51556 273 ft 9 kts 288°
2026-04-27 09:17 -25.24092 -57.51604 273 ft 15 kts 12°
2026-04-27 09:17 -25.23996 -57.51644 271 ft 17 kts 327°
2026-04-27 09:17 -25.23885 -57.51673 270 ft 18 kts 13°
2026-04-27 09:17 -25.23757 -57.51642 268 ft 20 kts 13°
2026-04-27 09:18 -25.23610 -57.51606 266 ft 23 kts 13°
2026-04-27 09:18 -25.23455 -57.51567 264 ft 23 kts 11°
2026-04-27 09:18 -25.23292 -57.51529 262 ft 24 kts 12°
2026-04-27 09:18 -25.23129 -57.51490 260 ft 21 kts
2026-04-27 09:19 -25.23066 -57.51611 259 ft 20 kts 282°
2026-04-27 09:19 -25.23082 -57.51696 260 ft 4 kts 191°
2026-04-27 09:19 -25.23086 -57.51697 260 ft 0 kts 192°
2026-04-27 09:19 -25.23100 -57.51700 260 ft 13 kts 191°
2026-04-27 09:20 -25.23487 -57.51793 265 ft 107 kts 191°
2026-04-27 09:20 -25.24400 -57.52014 713 ft 154 kts 191°
2026-04-27 09:20 -25.25506 -57.52293 1613 ft 173 kts 187°
2026-04-27 09:20 -25.26740 -57.52582 2549 ft 191 kts 187°
2026-04-27 09:21 -25.28105 -57.52909 3486 ft 208 kts 189°
2026-04-27 09:21 -25.29564 -57.53268 4411 ft 223 kts 190°
2026-04-27 09:21 -25.31128 -57.53649 5348 ft 236 kts 191°
2026-04-27 09:21 -25.32773 -57.54055 6288 ft 248 kts 193°
2026-04-27 09:22 -25.34388 -57.54782 7114 ft 260 kts 220°
2026-04-27 09:22 -25.35352 -57.56458 7971 ft 265 kts 252°
2026-04-27 09:22 -25.35531 -57.58470 9060 ft 267 kts 280°
2026-04-27 09:22 -25.34780 -57.60363 10109 ft 273 kts 306°
2026-04-27 09:23 -25.33426 -57.61875 10752 ft 290 kts 313°
2026-04-27 09:23 -25.31895 -57.63493 11000 ft 318 kts 314°
2026-04-27 09:23 -25.30270 -57.65242 11593 ft 326 kts 313°
2026-04-27 09:23 -25.28666 -57.67026 12340 ft 331 kts 313°
2026-04-27 09:24 -25.27025 -57.68847 13033 ft 336 kts 313°
2026-04-27 09:24 -25.25370 -57.70663 13709 ft 341 kts 313°
2026-04-27 09:24 -25.23669 -57.72529 14350 ft 344 kts 313°
2026-04-27 09:24 -25.21983 -57.74382 15036 ft 345 kts 313°
2026-04-27 09:25 -25.20266 -57.76269 15721 ft 346 kts 312°
2026-04-27 09:25 -25.18573 -57.78133 16404 ft 347 kts 312°
2026-04-27 09:25 -25.16859 -57.80011 17081 ft 347 kts 312°
2026-04-27 09:25 -25.15144 -57.81897 17736 ft 347 kts 311°
2026-04-27 09:26 -25.13419 -57.83785 18358 ft 348 kts 311°
2026-04-27 09:26 -25.11715 -57.85657 18887 ft 349 kts 311°
2026-04-27 09:26 -25.10559 -57.86922 19218 ft 350 kts 311°
2026-04-27 09:26 -25.08838 -57.88811 19715 ft 352 kts 311°
2026-04-27 09:27 -25.06508 -57.91363 20382 ft 353 kts 311°
2026-04-27 09:27 -25.05344 -57.92635 20706 ft 354 kts 311°
2026-04-27 09:27 -25.03582 -57.94567 21175 ft 356 kts 310°
2026-04-27 09:27 -25.01833 -57.96475 21640 ft 358 kts 310°
2026-04-27 09:28 -25.00059 -57.98420 22103 ft 359 kts 310°
2026-04-27 09:28 -24.98271 -58.00371 22527 ft 361 kts 310°
2026-04-27 09:28 -24.96496 -58.02313 22946 ft 362 kts 310°
2026-04-27 09:28 -24.94700 -58.04272 23350 ft 364 kts 310°
2026-04-27 09:29 -24.92896 -58.06241 23726 ft 365 kts 310°
2026-04-27 09:29 -24.91078 -58.08227 24025 ft 367 kts 310°
2026-04-27 09:29 -24.89271 -58.10196 24326 ft 369 kts 310°
2026-04-27 09:29 -24.87439 -58.12196 24632 ft 370 kts 310°
2026-04-27 09:30 -24.85591 -58.14207 24919 ft 372 kts 310°
2026-04-27 09:30 -24.83764 -58.16199 25211 ft 374 kts 310°
2026-04-27 09:30 -24.81909 -58.18217 25492 ft 375 kts 310°
2026-04-27 09:30 -24.80055 -58.20235 25767 ft 377 kts 310°
2026-04-27 09:31 -24.78182 -58.22274 26036 ft 378 kts 310°
2026-04-27 09:31 -24.76298 -58.24319 26286 ft 380 kts 310°
2026-04-27 09:31 -24.74414 -58.26370 26540 ft 381 kts 310°
2026-04-27 09:31 -24.72542 -58.28401 26772 ft 383 kts 310°
2026-04-27 09:32 -24.70630 -58.30479 27007 ft 384 kts 311°
2026-04-27 09:32 -24.68735 -58.32535 27230 ft 386 kts 311°
2026-04-27 09:32 -24.66815 -58.34617 27447 ft 387 kts 311°
2026-04-27 09:32 -24.64890 -58.36706 27656 ft 388 kts 311°
2026-04-27 09:33 -24.62974 -58.38779 27853 ft 390 kts 311°
2026-04-27 09:33 -24.61051 -58.40866 28108 ft 390 kts 311°
2026-04-27 09:33 -24.59110 -58.42964 28424 ft 388 kts 311°
2026-04-27 09:33 -24.57183 -58.45051 28708 ft 388 kts 311°
2026-04-27 09:34 -24.55280 -58.47112 29001 ft 387 kts 311°
2026-04-27 09:34 -24.53352 -58.49194 29306 ft 386 kts 311°
2026-04-27 09:34 -24.51437 -58.51267 29613 ft 385 kts 311°
2026-04-27 09:34 -24.49523 -58.53332 29934 ft 384 kts 311°
2026-04-27 09:35 -24.47639 -58.55367 30239 ft 384 kts 311°
2026-04-27 09:35 -24.45728 -58.57431 30517 ft 383 kts 311°
2026-04-27 09:35 -24.43824 -58.59483 30784 ft 383 kts 311°
2026-04-27 09:35 -24.41946 -58.61512 31058 ft 382 kts 311°
2026-04-27 09:36 -24.40031 -58.63572 31341 ft 381 kts 311°
2026-04-27 09:36 -24.38158 -58.65594 31621 ft 381 kts 311°
2026-04-27 09:36 -24.36256 -58.67640 31906 ft 380 kts 311°
2026-04-27 09:36 -24.34376 -58.69664 32186 ft 380 kts 311°
2026-04-27 09:37 -24.32486 -58.71701 32464 ft 379 kts 311°
2026-04-27 09:37 -24.30618 -58.73706 32740 ft 378 kts 311°
2026-04-27 09:37 -24.28734 -58.75736 33017 ft 378 kts 311°
2026-04-27 09:37 -24.26875 -58.77730 33290 ft 377 kts 311°
2026-04-27 09:38 -24.24997 -58.79750 33584 ft 377 kts 311°
2026-04-27 09:38 -24.23123 -58.81762 33878 ft 376 kts 310°
2026-04-27 09:38 -24.21250 -58.83770 34187 ft 375 kts 311°
2026-04-27 09:38 -24.19408 -58.85749 34458 ft 374 kts 311°
2026-04-27 09:39 -24.17544 -58.87745 34759 ft 373 kts 310°
2026-04-27 09:39 -24.15686 -58.89737 35072 ft 371 kts 311°
2026-04-27 09:39 -24.13838 -58.91718 35387 ft 370 kts 311°
2026-04-27 09:39 -24.12023 -58.93660 35683 ft 368 kts 311°
2026-04-27 09:40 -24.10189 -58.95626 35969 ft 367 kts 311°
2026-04-27 09:40 -24.08362 -58.97580 36244 ft 366 kts 311°
2026-04-27 09:40 -24.06555 -58.99511 36517 ft 365 kts 311°
2026-04-27 09:40 -24.04741 -59.01452 36788 ft 364 kts 311°
2026-04-27 09:41 -24.02923 -59.03394 37061 ft 363 kts 311°
2026-04-27 09:41 -24.01114 -59.05327 37334 ft 361 kts 311°
2026-04-27 09:41 -23.99332 -59.07231 37593 ft 360 kts 311°
2026-04-27 09:41 -23.97528 -59.09155 37865 ft 359 kts 311°
2026-04-27 09:42 -23.95760 -59.11042 38122 ft 358 kts 311°
2026-04-27 09:42 -23.93965 -59.12957 38378 ft 358 kts 311°
2026-04-27 09:42 -23.92180 -59.14859 38649 ft 357 kts 311°
2026-04-27 09:42 -23.90420 -59.16736 38883 ft 356 kts 311°
2026-04-27 09:43 -23.88642 -59.18630 39088 ft 356 kts 311°
2026-04-27 09:43 -23.86868 -59.20518 39298 ft 356 kts 311°
2026-04-27 09:43 -23.85111 -59.22389 39503 ft 355 kts 311°
2026-04-27 09:43 -23.83334 -59.24279 39718 ft 355 kts 311°
2026-04-27 09:44 -23.81577 -59.26147 39928 ft 355 kts 311°
2026-04-27 09:44 -23.79799 -59.28039 40143 ft 355 kts 311°
2026-04-27 09:44 -23.78022 -59.29926 40357 ft 355 kts 311°
2026-04-27 09:44 -23.76250 -59.31808 40565 ft 354 kts 311°
2026-04-27 09:45 -23.74497 -59.33670 40777 ft 354 kts 311°
2026-04-27 09:45 -23.72724 -59.35551 40997 ft 354 kts 311°
2026-04-27 09:45 -23.70974 -59.37408 41205 ft 354 kts 311°
2026-04-27 09:45 -23.69208 -59.39282 41406 ft 354 kts 311°
2026-04-27 09:46 -23.67436 -59.41160 41616 ft 354 kts 311°
2026-04-27 09:46 -23.65665 -59.43037 41825 ft 353 kts 311°
2026-04-27 09:46 -23.63918 -59.44888 42034 ft 353 kts 311°
2026-04-27 09:46 -23.62148 -59.46761 42240 ft 353 kts 311°
2026-04-27 09:47 -23.60381 -59.48631 42442 ft 353 kts 311°
2026-04-27 09:47 -23.58633 -59.50482 42639 ft 353 kts 311°
2026-04-27 09:47 -23.56864 -59.52351 42836 ft 352 kts 311°
2026-04-27 09:48 -23.53324 -59.56096 42998 ft 357 kts 311°
2026-04-27 09:48 -23.49740 -59.59879 43056 ft 361 kts 311°
2026-04-27 09:49 -23.46135 -59.63682 43064 ft 362 kts 311°
2026-04-27 09:49 -23.42508 -59.67508 43066 ft 363 kts 311°
2026-04-27 09:50 -23.38879 -59.71331 43063 ft 363 kts 311°
2026-04-27 09:50 -23.35244 -59.75158 43060 ft 364 kts 311°
2026-04-27 09:51 -23.31605 -59.78985 43063 ft 364 kts 311°
2026-04-27 09:51 -23.27969 -59.82808 43064 ft 364 kts 311°
2026-04-27 09:52 -23.24309 -59.86651 43061 ft 364 kts 311°
2026-04-27 09:52 -23.20686 -59.90453 43061 ft 363 kts 311°
2026-04-27 09:53 -23.17052 -59.94263 43058 ft 363 kts 311°
2026-04-27 09:53 -23.13422 -59.98066 43058 ft 363 kts 311°
2026-04-27 09:54 -23.09769 -60.01891 43056 ft 363 kts 311°
2026-04-27 09:54 -23.06138 -60.05689 43057 ft 363 kts 311°
2026-04-27 09:55 -23.02508 -60.09483 43052 ft 363 kts 311°
2026-04-27 09:55 -22.97033 -60.15199 43056 ft 363 kts 311°
2026-04-27 09:56 -22.93400 -60.18990 43052 ft 364 kts 311°
2026-04-27 09:56 -22.89761 -60.22784 43056 ft 364 kts 311°
2026-04-27 09:57 -22.86112 -60.26583 43055 ft 364 kts 311°
2026-04-27 09:57 -22.82439 -60.30406 43057 ft 364 kts 311°
2026-04-27 09:58 -22.78783 -60.34208 43058 ft 364 kts 311°
2026-04-27 09:58 -22.75137 -60.37995 43055 ft 364 kts 311°
2026-04-27 09:59 -22.71464 -60.41809 43057 ft 364 kts 311°
2026-04-27 09:59 -22.67810 -60.45601 43060 ft 365 kts 311°
2026-04-27 10:00 -22.64147 -60.49397 43057 ft 365 kts 311°
2026-04-27 10:00 -22.60492 -60.53184 43065 ft 365 kts 311°
2026-04-27 10:01 -22.56808 -60.56998 43059 ft 365 kts 311°
2026-04-27 10:01 -22.53148 -60.60783 43067 ft 365 kts 311°
2026-04-27 10:02 -22.49481 -60.64572 43062 ft 365 kts 311°
2026-04-27 10:02 -22.45815 -60.68358 43052 ft 366 kts 311°
2026-04-27 10:03 -22.42119 -60.72172 43054 ft 366 kts 311°
2026-04-27 10:03 -22.38443 -60.75961 43058 ft 366 kts 312°
2026-04-27 10:04 -22.34746 -60.79769 43056 ft 366 kts 311°
2026-04-27 10:04 -22.31060 -60.83565 43062 ft 367 kts 312°
2026-04-27 10:05 -22.27352 -60.87379 43057 ft 367 kts 312°
2026-04-27 10:05 -22.23654 -60.91180 43068 ft 368 kts 312°
2026-04-27 10:06 -22.19952 -60.94983 43059 ft 368 kts 312°
2026-04-27 10:06 -22.16250 -60.98782 43060 ft 368 kts 312°
2026-04-27 10:07 -22.12538 -61.02588 43059 ft 369 kts 312°
2026-04-27 10:07 -22.08809 -61.06410 43066 ft 369 kts 312°
2026-04-27 10:08 -22.05089 -61.10219 43063 ft 370 kts 312°
2026-04-27 10:08 -22.01364 -61.14029 43065 ft 370 kts 312°
2026-04-27 10:09 -21.97632 -61.17846 43065 ft 370 kts 312°
2026-04-27 10:09 -21.93902 -61.21657 43069 ft 371 kts 312°
2026-04-27 10:10 -21.90167 -61.25469 43065 ft 371 kts 312°
2026-04-27 10:10 -21.86405 -61.29306 43071 ft 371 kts 312°
2026-04-27 10:11 -21.82664 -61.33121 43069 ft 371 kts 312°
2026-04-27 10:11 -21.78919 -61.36934 43070 ft 372 kts 313°
2026-04-27 10:12 -21.75785 -61.40123 43070 ft 372 kts 313°
2026-04-27 10:12 -21.72009 -61.43964 43072 ft 372 kts 313°
2026-04-27 10:13 -21.68246 -61.47789 43071 ft 372 kts 313°
2026-04-27 10:13 -21.64478 -61.51616 43069 ft 373 kts 313°
2026-04-27 10:14 -21.60720 -61.55428 43070 ft 373 kts 313°
2026-04-27 10:14 -21.56933 -61.59269 43071 ft 373 kts 313°
2026-04-27 10:15 -21.53161 -61.63091 43070 ft 373 kts 313°
2026-04-27 10:15 -21.49392 -61.66906 43074 ft 374 kts 313°
2026-04-27 10:16 -21.45594 -61.70750 43075 ft 374 kts 313°
2026-04-27 10:16 -21.41821 -61.74565 43079 ft 374 kts 313°
2026-04-27 10:17 -21.38027 -61.78396 43079 ft 374 kts 313°
2026-04-27 10:17 -21.34235 -61.82225 43077 ft 375 kts 313°
2026-04-27 10:18 -21.30421 -61.86072 43078 ft 375 kts 313°
2026-04-27 10:18 -21.26641 -61.89881 43083 ft 375 kts 314°
2026-04-27 10:19 -21.22824 -61.93727 43081 ft 375 kts 314°
2026-04-27 10:19 -21.19013 -61.97563 43085 ft 375 kts 314°
2026-04-27 10:20 -21.15219 -62.01377 43085 ft 376 kts 314°
2026-04-27 10:20 -21.11404 -62.05212 43088 ft 376 kts 314°
2026-04-27 10:21 -21.07579 -62.09054 43086 ft 376 kts 314°
2026-04-27 10:21 -21.03782 -62.12863 43086 ft 377 kts 314°
2026-04-27 10:22 -20.99939 -62.16717 43085 ft 377 kts 314°
2026-04-27 10:22 -20.96163 -62.20579 43087 ft 376 kts 310°
2026-04-27 10:23 -20.93059 -62.25062 43092 ft 374 kts 300°
2026-04-27 10:23 -20.90368 -62.29784 43092 ft 374 kts 300°
2026-04-27 10:24 -20.87635 -62.34552 43090 ft 374 kts 300°
2026-04-27 10:24 -20.84933 -62.39283 43098 ft 375 kts 300°
2026-04-27 10:25 -20.82212 -62.44031 43098 ft 375 kts 300°
2026-04-27 10:25 -20.79477 -62.48803 43098 ft 375 kts 300°
2026-04-27 10:26 -20.76754 -62.53551 43097 ft 375 kts 300°
2026-04-27 10:26 -20.74033 -62.58292 43100 ft 376 kts 300°
2026-04-27 10:27 -20.71288 -62.63068 43102 ft 376 kts 300°
2026-04-27 10:27 -20.68568 -62.67798 43106 ft 376 kts 300°
2026-04-27 10:28 -20.65827 -62.72562 43099 ft 376 kts 300°
2026-04-27 10:28 -20.63086 -62.77318 43107 ft 377 kts 301°
2026-04-27 10:29 -20.60344 -62.82074 43111 ft 377 kts 301°
2026-04-27 10:29 -20.57579 -62.86868 43103 ft 377 kts 301°
2026-04-27 10:30 -20.54834 -62.91621 43105 ft 377 kts 301°
2026-04-27 10:30 -20.52080 -62.96386 43112 ft 378 kts 301°
2026-04-27 10:31 -20.49323 -63.01153 43108 ft 378 kts 301°
2026-04-27 10:31 -20.47130 -63.04941 43114 ft 378 kts 301°
2026-04-27 10:32 -20.44415 -63.09731 43116 ft 379 kts 300°
2026-04-27 10:32 -20.41694 -63.14562 43118 ft 379 kts 300°
2026-04-27 10:33 -20.38971 -63.19364 43125 ft 379 kts 300°
2026-04-27 10:33 -20.36247 -63.24181 43120 ft 380 kts 300°
2026-04-27 10:34 -20.33513 -63.29002 43120 ft 380 kts 300°
2026-04-27 10:34 -20.30784 -63.33815 43124 ft 380 kts 300°
2026-04-27 10:35 -20.28052 -63.38627 43142 ft 381 kts 300°
2026-04-27 10:35 -20.25296 -63.43478 43163 ft 381 kts 300°
2026-04-27 10:36 -20.22560 -63.48289 43169 ft 382 kts 300°
2026-04-27 10:36 -20.19801 -63.53137 43182 ft 382 kts 300°
2026-04-27 10:37 -20.17045 -63.57977 43188 ft 382 kts 300°
2026-04-27 10:37 -20.14295 -63.62800 43187 ft 382 kts 300°
2026-04-27 10:38 -20.11536 -63.67636 43186 ft 383 kts 301°
2026-04-27 10:38 -20.08777 -63.72469 43174 ft 383 kts 301°
2026-04-27 10:39 -20.06015 -63.77302 43178 ft 383 kts 301°
2026-04-27 10:39 -20.03236 -63.82160 43165 ft 383 kts 301°
2026-04-27 10:40 -20.00473 -63.86989 43161 ft 384 kts 301°
2026-04-27 10:40 -19.97687 -63.91850 43154 ft 385 kts 301°
2026-04-27 10:41 -19.94905 -63.96703 43158 ft 385 kts 301°
2026-04-27 10:41 -19.92115 -64.01566 43161 ft 385 kts 301°
2026-04-27 10:42 -19.89322 -64.06428 43165 ft 386 kts 301°
2026-04-27 10:42 -19.86521 -64.11300 43169 ft 386 kts 301°
2026-04-27 10:43 -19.83717 -64.16176 43174 ft 387 kts 301°
2026-04-27 10:43 -19.80900 -64.21068 43174 ft 388 kts 301°
2026-04-27 10:44 -19.78085 -64.25955 43191 ft 387 kts 301°
2026-04-27 10:44 -19.75298 -64.30788 43189 ft 386 kts 301°
2026-04-27 10:45 -19.72494 -64.35646 43193 ft 385 kts 301°
2026-04-27 10:45 -19.69698 -64.40485 43198 ft 385 kts 301°
2026-04-27 10:46 -19.66907 -64.45314 43197 ft 384 kts 301°
2026-04-27 10:46 -19.64103 -64.50159 43184 ft 384 kts 301°
2026-04-27 10:47 -19.61307 -64.54990 43179 ft 383 kts 301°
2026-04-27 10:47 -19.58519 -64.59800 43171 ft 383 kts 301°
2026-04-27 10:48 -19.55731 -64.64607 43181 ft 383 kts 301°
2026-04-27 10:48 -19.52935 -64.69426 43178 ft 383 kts 301°
2026-04-27 10:49 -19.50138 -64.74240 43177 ft 383 kts 301°
2026-04-27 10:49 -19.47344 -64.79044 43180 ft 384 kts 301°
2026-04-27 10:50 -19.44555 -64.83839 43171 ft 384 kts 301°
2026-04-27 10:50 -19.41748 -64.88661 43175 ft 383 kts 301°
2026-04-27 10:51 -19.38954 -64.93454 43183 ft 383 kts 301°
2026-04-27 10:51 -19.36149 -64.98265 43180 ft 382 kts 301°
2026-04-27 10:52 -19.33363 -65.03039 43187 ft 382 kts 301°
2026-04-27 10:52 -19.30559 -65.07838 43187 ft 383 kts 301°
2026-04-27 10:53 -19.26195 -65.14889 43191 ft 384 kts 308°
2026-04-27 10:54 -19.22557 -65.19034 43196 ft 385 kts 311°
2026-04-27 10:54 -19.18900 -65.23160 43210 ft 385 kts 311°
2026-04-27 10:55 -19.15208 -65.27295 43208 ft 385 kts 311°
2026-04-27 10:55 -19.11540 -65.31412 43217 ft 385 kts 312°
2026-04-27 10:56 -19.07867 -65.35527 43226 ft 386 kts 311°
2026-04-27 10:56 -19.04169 -65.39667 43236 ft 386 kts 311°
2026-04-27 10:57 -19.00491 -65.43795 43243 ft 386 kts 312°
2026-04-27 10:57 -18.97427 -65.47224 43250 ft 383 kts 312°
2026-04-27 10:58 -18.93167 -65.51995 43261 ft 384 kts 311°
2026-04-27 10:58 -18.89505 -65.56109 43266 ft 384 kts 311°
2026-04-27 10:59 -18.86464 -65.59539 43272 ft 385 kts 311°
2026-04-27 10:59 -18.82792 -65.63664 43274 ft 385 kts 311°
2026-04-27 11:00 -18.77283 -65.69855 43285 ft 385 kts 311°
2026-04-27 11:00 -18.73624 -65.73962 43281 ft 385 kts 311°
2026-04-27 11:01 -18.69953 -65.78081 43286 ft 385 kts 311°
2026-04-27 11:01 -18.66279 -65.82201 43290 ft 385 kts 311°
2026-04-27 11:02 -18.62608 -65.86316 43292 ft 386 kts 311°
2026-04-27 11:02 -18.58931 -65.90432 43300 ft 386 kts 311°
2026-04-27 11:03 -18.55234 -65.94568 43299 ft 387 kts 311°
2026-04-27 11:03 -18.51559 -65.98679 43305 ft 387 kts 311°
2026-04-27 11:04 -18.47842 -66.02837 43308 ft 389 kts 311°
2026-04-27 11:04 -18.44180 -66.06978 43312 ft 388 kts 311°
2026-04-27 11:05 -18.40499 -66.11119 43313 ft 387 kts 311°
2026-04-27 11:05 -18.36818 -66.15265 43313 ft 387 kts 311°
2026-04-27 11:06 -18.33137 -66.19405 43325 ft 388 kts 312°
2026-04-27 11:06 -18.29456 -66.23542 43326 ft 388 kts 311°
2026-04-27 11:07 -18.25760 -66.27695 43328 ft 388 kts 312°
2026-04-27 11:07 -18.22071 -66.31838 43332 ft 388 kts 312°
2026-04-27 11:08 -18.18382 -66.35974 43336 ft 388 kts 311°
2026-04-27 11:08 -18.14669 -66.40139 43336 ft 389 kts 311°
2026-04-27 11:09 -18.10988 -66.44262 43335 ft 389 kts 312°
2026-04-27 11:09 -18.07287 -66.48406 43333 ft 389 kts 312°
2026-04-27 11:10 -18.03571 -66.52564 43332 ft 389 kts 312°
2026-04-27 11:10 -17.99868 -66.56705 43331 ft 388 kts 312°
2026-04-27 11:11 -17.96181 -66.60825 43333 ft 388 kts 312°
2026-04-27 11:11 -17.92486 -66.64951 43329 ft 388 kts 312°
2026-04-27 11:12 -17.88772 -66.69095 43328 ft 388 kts 312°
2026-04-27 11:12 -17.85097 -66.73231 43350 ft 388 kts 311°
2026-04-27 11:13 -17.81424 -66.77382 43373 ft 388 kts 312°
2026-04-27 11:13 -17.77727 -66.81541 43385 ft 389 kts 311°
2026-04-27 11:14 -17.74044 -66.85692 43390 ft 389 kts 311°
2026-04-27 11:14 -17.70367 -66.89828 43389 ft 389 kts 311°
2026-04-27 11:15 -17.66686 -66.93969 43380 ft 388 kts 312°
2026-04-27 11:15 -17.63004 -66.98106 43353 ft 389 kts 312°
2026-04-27 11:16 -17.59311 -67.02253 43330 ft 389 kts 312°
2026-04-27 11:16 -17.55629 -67.06387 43330 ft 389 kts 312°
2026-04-27 11:17 -17.51931 -67.10535 43327 ft 389 kts 312°
2026-04-27 11:17 -17.48237 -67.14676 43326 ft 389 kts 312°
2026-04-27 11:18 -17.44535 -67.18822 43325 ft 389 kts 312°
2026-04-27 11:18 -17.40810 -67.22993 43059 ft 396 kts 312°
2026-04-27 11:19 -17.38932 -67.25095 42550 ft 400 kts 312°
2026-04-27 11:19 -17.37016 -67.27238 42016 ft 402 kts 311°
2026-04-27 11:19 -17.35106 -67.29372 41499 ft 405 kts 311°
2026-04-27 11:19 -17.33170 -67.31538 40949 ft 407 kts 311°
2026-04-27 11:20 -17.31244 -67.33690 40417 ft 410 kts 311°
2026-04-27 11:20 -17.29282 -67.35883 39873 ft 413 kts 311°
2026-04-27 11:20 -17.27321 -67.38072 39329 ft 415 kts 311°
2026-04-27 11:20 -17.25326 -67.40300 38744 ft 418 kts 311°
2026-04-27 11:21 -17.23347 -67.42508 38186 ft 418 kts 311°
2026-04-27 11:21 -17.21344 -67.44741 37624 ft 419 kts 311°
2026-04-27 11:21 -17.19369 -67.46944 37078 ft 420 kts 311°
2026-04-27 11:21 -17.17355 -67.49192 36518 ft 424 kts 311°
2026-04-27 11:22 -17.15320 -67.51460 35951 ft 426 kts 311°
2026-04-27 11:22 -17.13466 -67.53843 35389 ft 427 kts 304°
2026-04-27 11:22 -17.11859 -67.56474 34816 ft 429 kts 299°
2026-04-27 11:22 -17.10318 -67.59162 34246 ft 431 kts 300°
2026-04-27 11:23 -17.08757 -67.61848 33644 ft 432 kts 300°
2026-04-27 11:23 -17.07192 -67.64538 33070 ft 432 kts 300°
2026-04-27 11:23 -17.05654 -67.67209 32505 ft 434 kts 300°
2026-04-27 11:23 -17.04083 -67.69930 31925 ft 436 kts 300°
2026-04-27 11:24 -17.02518 -67.72631 31350 ft 438 kts 300°
2026-04-27 11:24 -17.00931 -67.75368 30771 ft 441 kts 300°
2026-04-27 11:24 -16.99339 -67.78116 30163 ft 443 kts 300°
2026-04-27 11:24 -16.97732 -67.80892 29553 ft 443 kts 300°
2026-04-27 11:25 -16.96153 -67.83615 28968 ft 443 kts 300°
2026-04-27 11:25 -16.94550 -67.86381 28381 ft 443 kts 300°
2026-04-27 11:25 -16.92944 -67.89146 27792 ft 444 kts 300°
2026-04-27 11:25 -16.91358 -67.91877 27201 ft 444 kts 300°
2026-04-27 11:26 -16.89750 -67.94651 26623 ft 444 kts 300°
2026-04-27 11:26 -16.88156 -67.97390 26042 ft 444 kts 301°
2026-04-27 11:26 -16.86540 -68.00172 25450 ft 445 kts 301°
2026-04-27 11:26 -16.84955 -68.02902 24868 ft 441 kts 301°
2026-04-27 11:27 -16.83352 -68.05654 24309 ft 437 kts 301°
2026-04-27 11:27 -16.81793 -68.08331 23745 ft 431 kts 301°
2026-04-27 11:27 -16.80274 -68.10946 23205 ft 404 kts 301°
2026-04-27 11:27 -16.78876 -68.13341 22722 ft 373 kts 301°
2026-04-27 11:28 -16.77580 -68.15572 22290 ft 355 kts 301°
2026-04-27 11:28 -16.76308 -68.17763 21854 ft 351 kts 301°
2026-04-27 11:28 -16.75046 -68.19952 21409 ft 350 kts 301°
2026-04-27 11:28 -16.73792 -68.22116 20975 ft 349 kts 301°
2026-04-27 11:29 -16.72526 -68.24298 20525 ft 347 kts 301°
2026-04-27 11:29 -16.71293 -68.26425 20084 ft 344 kts 301°
2026-04-27 11:29 -16.70053 -68.28562 19637 ft 342 kts 301°
2026-04-27 11:29 -16.68822 -68.30688 19187 ft 340 kts 301°
2026-04-27 11:30 -16.67612 -68.32769 18734 ft 331 kts 301°
2026-04-27 11:30 -16.66451 -68.34774 18275 ft 311 kts 301°
2026-04-27 11:30 -16.65383 -68.36585 17878 ft 282 kts 304°
2026-04-27 11:30 -16.64048 -68.38002 17550 ft 266 kts 329°
2026-04-27 11:31 -16.62416 -68.38658 17485 ft 244 kts 352°
2026-04-27 11:31 -16.60747 -68.38687 17494 ft 238 kts
2026-04-27 11:31 -16.59078 -68.38645 17200 ft 250 kts
2026-04-27 11:31 -16.57299 -68.38575 16838 ft 259 kts
2026-04-27 11:32 -16.55468 -68.38506 16522 ft 262 kts
2026-04-27 11:32 -16.53700 -68.38400 16212 ft 251 kts
2026-04-27 11:32 -16.52156 -68.37655 15924 ft 242 kts 38°
2026-04-27 11:32 -16.51156 -68.36319 15655 ft 234 kts 66°
2026-04-27 11:33 -16.50838 -68.34688 15402 ft 228 kts 90°
2026-04-27 11:33 -16.50886 -68.33050 15157 ft 222 kts 91°
2026-04-27 11:33 -16.50939 -68.31561 14937 ft 192 kts 92°
2026-04-27 11:33 -16.50982 -68.30257 14715 ft 168 kts 92°
2026-04-27 11:34 -16.51019 -68.29159 14530 ft 142 kts 91°
2026-04-27 11:34 -16.51052 -68.28172 14215 ft 130 kts 92°
2026-04-27 11:34 -16.51079 -68.27234 14057 ft 128 kts 92°
2026-04-27 11:34 -16.51108 -68.26310 13923 ft 132 kts 91°
2026-04-27 11:35 -16.51142 -68.25332 13774 ft 137 kts 92°
2026-04-27 11:35 -16.51171 -68.24335 13619 ft 140 kts 92°
2026-04-27 11:35 -16.51202 -68.23341 13458 ft 133 kts 92°
2026-04-27 11:35 -16.51232 -68.22399 13320 ft 126 kts 92°
2026-04-27 11:36 -16.51259 -68.21513 13229 ft 122 kts 92°
2026-04-27 11:36 -16.51288 -68.20655 13141 ft 108 kts 92°
2026-04-27 11:36 -16.51310 -68.19984 13175 ft 77 kts 92°
2026-04-27 11:36 -16.51325 -68.19499 13207 ft 58 kts 91°
2026-04-27 11:37 -16.51338 -68.19124 13223 ft 47 kts 92°
2026-04-27 11:37 -16.51348 -68.18814 13237 ft 38 kts 92°
2026-04-27 11:37 -16.51356 -68.18569 13249 ft 30 kts 91°
2026-04-27 11:37 -16.51351 -68.18380 13260 ft 22 kts 76°
2026-04-27 11:38 -16.51302 -68.18252 13267 ft 16 kts 65°
2026-04-27 11:38 -16.51239 -68.18150 13271 ft 19 kts 50°
2026-04-27 11:38 -16.51143 -68.18041 13266 ft 22 kts 47°
2026-04-27 11:38 -16.51052 -68.17940 13254 ft 15 kts 46°
2026-04-27 11:39 -16.50988 -68.17874 13241 ft 11 kts 30°
2026-04-27 11:39 -16.50939 -68.17869 13233 ft 1 kts
2026-04-27 11:39 -16.50931 -68.17869 13231 ft 0 kts